Regional Weather Roundup
Issued by NWS Burlington, VT

Home | Current Version | Previous Version | Text Only | Print | Product List | Glossary On
Versions: 1 2 3 4 5 6 7 8 9 10 11 12 13 14 15 16 17 18 19 20 21 22 23 24 25 26 27 28 29 30 31 32 33 34 35 36 37 38 39 40 41 42 43 44 45 46 47 48 49 50
000
ASUS41 KBTV 041830
RWRBTV
VERMONT REGIONAL WEATHER ROUNDUP
NATIONAL WEATHER SERVICE BURLINGTON VT
100 PM EST SUN DEC 04 2016

NOTE: "FAIR" INDICATES FEW OR NO CLOUDS BELOW 12,000 FEET WITH NO
SIGNIFICANT WEATHER AND/OR OBSTRUCTIONS TO VISIBILITY.

* THESE REPORTS ARE NOT UNDER NWS QUALITY CONTROL AND/OR DO NOT
  REPORT WEATHER SUCH AS PRECIPITATION AND FOG.

VTZ001>019-041900-
_____VERMONT_____


CITY           SKY/WX    TMP DP  RH WIND       PRES   REMARKS
BURLINGTON     CLOUDY    34  21  59 N9        30.23F WCI  27
6HR MIN TEMP:  32; 6HR MAX TEMP:  34; 6HR PCP: TRACE;

MONTPELIER     PTSUNNY   28  21  75 NW8       30.20F WCI  20
6HR MIN TEMP:  26; 6HR MAX TEMP:  29;

MORRISVILLE    PTSUNNY   31  20  63 N8        30.21F WCI  23
6HR MIN TEMP:  28; 6HR MAX TEMP:  31;

ST. JOHNSBURY*   N/A     32  21  64 MISG      30.17F
6HR MIN TEMP:  29; 6HR MAX TEMP:  33;

LYNDONVILLE*   CLOUDY    29  21  73 W7        30.17S WCI  22
6HR MIN TEMP:  26; 6HR MAX TEMP:  29;

MIDDLEBURY*    CLOUDY    32  20  60 N6        30.22S WCI  27
6HR MIN TEMP:  30; 6HR MAX TEMP:  32;

RUTLAND*       CLOUDY    31  22  69 NW8       30.20F WCI  23
6HR MIN TEMP:  29; 6HR MAX TEMP:  31;

SPRINGFIELD    MOSUNNY   35  19  52 W9        30.18F WCI  28
6HR MIN TEMP:  31; 6HR MAX TEMP:  35;

HIGHGATE*      CLOUDY    32  22  67 N6        30.24F WCI  26
6HR MIN TEMP:  30; 6HR MAX TEMP:  33;

NEWPORT*       CLOUDY    28  20  73 NW8       30.19S WCI  19
6HR MIN TEMP:  26; 6HR MAX TEMP:  28;

BENNINGTON     CLOUDY    33  19  56 NW8       30.20F WCI  26
6HR MIN TEMP:  30; 6HR MAX TEMP:  33;

ISLAND POND*     N/A     27 N/A N/A NW7         N/A  WCI  19
GALLUP MILLS*    N/A     28 N/A N/A MISG        N/A
UNION VILLAGE*   N/A     34 N/A N/A MISG        N/A
MT. MANSFIELD*   N/A     18 N/A N/A CALM        N/A

_____LAKE CHAMPLAIN_____


CITY           SKY/WX    TMP DP  RH WIND       PRES   REMARKS
BURTON ISLAND*   N/A     34  25  69 NW5         N/A  WCI  30
COLCHESTER RF*   N/A     34  25  69 N9          N/A  WCI  26
DIAMOND ISL*     N/A     34  23  64 N12         N/A  WCI  25

$$

NYZ007-026>031-035-052-083-087-041900-
_____NORTHERN NEW YORK_____


CITY           SKY/WX    TMP DP  RH WIND       PRES   REMARKS
PLATTSBURGH    PTSUNNY   35  20  54 NW8       30.24F WCI  29
6HR MIN TEMP:  31; 6HR MAX TEMP:  36;

SARANAC LAKE   CLOUDY    24  19  81 CALM      30.16F
6HR MIN TEMP:  23; 6HR MAX TEMP:  24;

MASSENA        MOSUNNY   31  19  61 W6        30.27F WCI  25
6HR MIN TEMP:  30; 6HR MAX TEMP:  34;

OGDENSBURG*    PTSUNNY   32  21  64 CALM      30.27S
6HR MIN TEMP:  29; 6HR MAX TEMP:  32;

POTSDAM*       CLOUDY    30  25  80 W3        30.26S
STARK FALLS*     N/A     25 N/A N/A SW3         N/A
WATERTOWN      MOSUNNY   31  19  61 NE3       30.26F
6HR MIN TEMP:  28; 6HR MAX TEMP:  33;

FT DRUM        CLOUDY    28  19  69 VRB6      30.24F WCI  22
6HR MIN TEMP:  27; 6HR MAX TEMP:  29;

ALBANY         PTSUNNY   34  20  56 W5        30.26S WCI  30
6HR MIN TEMP:  29; 6HR MAX TEMP:  35;

GLENS FALLS    CLOUDY    36  20  52 NW8       30.24F WCI  30
6HR MIN TEMP:  34; 6HR MAX TEMP:  36;


$$
NHZ002-005-011-041900-
_____NEW HAMPSHIRE_____


CITY           SKY/WX    TMP DP  RH WIND       PRES   REMARKS
LEBANON        CLOUDY    36  22  56 NW10      30.18F WCI  28
6HR MIN TEMP:  32; 6HR MAX TEMP:  36;

KEENE          MOSUNNY   36  20  52 NW12      30.17F WCI  28
6HR MIN TEMP:  32; 6HR MAX TEMP:  36;

MT WASHINGTON  PTSUNNY    9   0  66 NW48G59     N/A  WCI -19
6HR MIN TEMP:   5; 6HR MAX TEMP:   9;

PLYMOUTH         N/A     35  21  57 W9        30.17S WCI  27
WHITEFIELD     CLOUDY    30  18  60 W6        30.16S WCI  24
6HR MIN TEMP:  28; 6HR MAX TEMP:  30; 6HR PCP: TRACE;


$$

_____REGIONAL QUEBEC LOCATIONS_____


CITY           SKY/WX    TMP DP  RH WIND       PRES   REMARKS
MONTREAL       MOSUNNY   34  18  51 W8        30.25F WCI  27
QUEBEC CITY    MOSUNNY   27  19  74 SW13      30.20S WCI  16
SHERBROOKE     CLOUDY    25  19  80 W12G17    30.18S WCI  14

_____REGIONAL ONTARIO LOCATIONS_____


CITY           SKY/WX    TMP DP  RH WIND       PRES   REMARKS
OTTAWA         MOSUNNY   34  19  55 W3        30.26F

______KEY______
VSB  - VISIBILITY IN MILES
WCI  - WIND CHILL INDEX
HX   - HEAT INDEX
$$
NNNN




USA.gov is the U.S. government's official web portal to all federal, state and local government web resources and services.